Year,Month,Day,Hour,Minute,Value (Times are PST for insolation in W/m^2)
2022,06,12,00,00,0.00
2022,06,12,00,01,0.00
2022,06,12,00,02,0.00
2022,06,12,00,03,0.00
2022,06,12,00,04,0.00
2022,06,12,00,05,0.00
2022,06,12,00,06,0.00
2022,06,12,00,07,0.00
2022,06,12,00,08,0.00
2022,06,12,00,09,0.00
2022,06,12,00,10,0.00
2022,06,12,00,11,0.00
2022,06,12,00,12,0.00
2022,06,12,00,13,0.00
2022,06,12,00,14,0.00
2022,06,12,00,15,0.00
2022,06,12,00,16,0.00
2022,06,12,00,17,0.00
2022,06,12,00,18,0.00
2022,06,12,00,19,0.00
2022,06,12,00,20,0.00
2022,06,12,00,21,0.00
2022,06,12,00,22,0.00
2022,06,12,00,23,0.00
2022,06,12,00,24,0.00
2022,06,12,00,25,0.00
2022,06,12,00,26,0.00
2022,06,12,00,27,0.00
2022,06,12,00,28,0.00
2022,06,12,00,29,0.00
2022,06,12,00,30,0.00
2022,06,12,00,31,0.00
2022,06,12,00,32,0.00
2022,06,12,00,33,0.00
2022,06,12,00,34,0.00
2022,06,12,00,35,0.00
2022,06,12,00,36,0.00
2022,06,12,00,37,0.00
2022,06,12,00,38,0.00
2022,06,12,00,39,0.00
2022,06,12,00,40,0.00
2022,06,12,00,41,0.00
2022,06,12,00,42,0.00
2022,06,12,00,43,0.00
2022,06,12,00,44,0.00
2022,06,12,00,45,0.00
2022,06,12,00,46,0.00
2022,06,12,00,47,0.00
2022,06,12,00,48,0.00
2022,06,12,00,49,0.00
2022,06,12,00,50,0.00
2022,06,12,00,51,0.00
2022,06,12,00,52,0.00
2022,06,12,00,53,0.00
2022,06,12,00,54,0.00
2022,06,12,00,55,0.00
2022,06,12,00,56,0.00
2022,06,12,00,57,0.00
2022,06,12,00,58,0.00
2022,06,12,00,59,0.00
2022,06,12,01,00,0.00
2022,06,12,01,01,0.00
2022,06,12,01,02,0.00
2022,06,12,01,03,0.00
2022,06,12,01,04,0.00
2022,06,12,01,05,0.00
2022,06,12,01,06,0.00
2022,06,12,01,07,0.00
2022,06,12,01,08,0.00
2022,06,12,01,09,0.00
2022,06,12,01,10,0.00
2022,06,12,01,11,0.00
2022,06,12,01,12,0.00
2022,06,12,01,13,0.00
2022,06,12,01,14,0.00
2022,06,12,01,15,0.00
2022,06,12,01,16,0.00
2022,06,12,01,17,0.00
2022,06,12,01,18,0.00
2022,06,12,01,19,0.00
2022,06,12,01,20,0.00
2022,06,12,01,21,0.00
2022,06,12,01,22,0.00
2022,06,12,01,23,0.00
2022,06,12,01,24,0.00
2022,06,12,01,25,0.00
2022,06,12,01,26,0.00
2022,06,12,01,27,0.00
2022,06,12,01,28,0.00
2022,06,12,01,29,0.00
2022,06,12,01,30,0.00
2022,06,12,01,31,0.00
2022,06,12,01,32,0.00
2022,06,12,01,33,0.00
2022,06,12,01,34,0.00
2022,06,12,01,35,0.00
2022,06,12,01,36,0.00
2022,06,12,01,37,0.00
2022,06,12,01,38,0.00
2022,06,12,01,39,0.00
2022,06,12,01,40,0.00
2022,06,12,01,41,0.00
2022,06,12,01,42,0.00
2022,06,12,01,43,0.00
2022,06,12,01,44,0.00
2022,06,12,01,45,0.00
2022,06,12,01,46,0.00
2022,06,12,01,47,0.00
2022,06,12,01,48,0.00
2022,06,12,01,49,0.00
2022,06,12,01,50,0.00
2022,06,12,01,51,0.00
2022,06,12,01,52,0.00
2022,06,12,01,53,0.00
2022,06,12,01,54,0.00
2022,06,12,01,55,0.00
2022,06,12,01,56,0.00
2022,06,12,01,57,0.00
2022,06,12,01,58,0.00
2022,06,12,01,59,0.00
2022,06,12,02,00,0.00
2022,06,12,02,01,0.00
2022,06,12,02,02,0.00
2022,06,12,02,03,0.00
2022,06,12,02,04,0.00
2022,06,12,02,05,0.00
2022,06,12,02,06,0.00
2022,06,12,02,07,0.00
2022,06,12,02,08,0.00
2022,06,12,02,09,0.00
2022,06,12,02,10,0.00
2022,06,12,02,11,0.00
2022,06,12,02,12,0.00
2022,06,12,02,13,0.00
2022,06,12,02,14,0.00
2022,06,12,02,15,0.00
2022,06,12,02,16,0.00
2022,06,12,02,17,0.00
2022,06,12,02,18,0.00
2022,06,12,02,19,0.00
2022,06,12,02,20,0.00
2022,06,12,02,21,0.00
2022,06,12,02,22,0.00
2022,06,12,02,23,0.00
2022,06,12,02,24,0.00
2022,06,12,02,25,0.00
2022,06,12,02,26,0.00
2022,06,12,02,27,0.00
2022,06,12,02,28,0.00
2022,06,12,02,29,0.00
2022,06,12,02,30,0.00
2022,06,12,02,31,0.00
2022,06,12,02,32,0.00
2022,06,12,02,33,0.00
2022,06,12,02,34,0.00
2022,06,12,02,35,0.00
2022,06,12,02,36,0.00
2022,06,12,02,37,0.00
2022,06,12,02,38,0.00
2022,06,12,02,39,0.00
2022,06,12,02,40,0.00
2022,06,12,02,41,0.00
2022,06,12,02,42,0.00
2022,06,12,02,43,0.00
2022,06,12,02,44,0.00
2022,06,12,02,45,0.00
2022,06,12,02,46,0.00
2022,06,12,02,47,0.00
2022,06,12,02,48,0.00
2022,06,12,02,49,0.00
2022,06,12,02,50,0.00
2022,06,12,02,51,0.00
2022,06,12,02,52,0.00
2022,06,12,02,53,0.00
2022,06,12,02,54,0.00
2022,06,12,02,55,0.00
2022,06,12,02,56,0.00
2022,06,12,02,57,0.00
2022,06,12,02,58,0.00
2022,06,12,02,59,0.00
2022,06,12,03,00,0.00
2022,06,12,03,01,0.00
2022,06,12,03,02,0.00
2022,06,12,03,03,0.00
2022,06,12,03,04,0.00
2022,06,12,03,05,0.00
2022,06,12,03,06,0.00
2022,06,12,03,07,0.00
2022,06,12,03,08,0.00
2022,06,12,03,09,0.00
2022,06,12,03,10,0.00
2022,06,12,03,11,0.00
2022,06,12,03,12,0.00
2022,06,12,03,13,0.00
2022,06,12,03,14,0.00
2022,06,12,03,15,0.00
2022,06,12,03,16,0.00
2022,06,12,03,17,0.00
2022,06,12,03,18,0.00
2022,06,12,03,19,0.00
2022,06,12,03,20,0.00
2022,06,12,03,21,0.00
2022,06,12,03,22,0.00
2022,06,12,03,23,0.00
2022,06,12,03,24,0.00
2022,06,12,03,25,0.00
2022,06,12,03,26,0.00
2022,06,12,03,27,0.00
2022,06,12,03,28,0.00
2022,06,12,03,29,0.00
2022,06,12,03,30,0.00
2022,06,12,03,31,0.00
2022,06,12,03,32,0.00
2022,06,12,03,33,0.00
2022,06,12,03,34,0.00
2022,06,12,03,35,0.00
2022,06,12,03,36,0.00
2022,06,12,03,37,0.00
2022,06,12,03,38,0.00
2022,06,12,03,39,0.00
2022,06,12,03,40,0.00
2022,06,12,03,41,0.00
2022,06,12,03,42,0.00
2022,06,12,03,43,0.00
2022,06,12,03,44,0.00
2022,06,12,03,45,0.00
2022,06,12,03,46,0.00
2022,06,12,03,47,0.00
2022,06,12,03,48,0.00
2022,06,12,03,49,0.00
2022,06,12,03,50,0.00
2022,06,12,03,51,0.00
2022,06,12,03,52,0.00
2022,06,12,03,53,0.00
2022,06,12,03,54,0.00
2022,06,12,03,55,0.00
2022,06,12,03,56,0.00
2022,06,12,03,57,0.00
2022,06,12,03,58,0.00
2022,06,12,03,59,0.00
2022,06,12,04,00,0.00
2022,06,12,04,01,0.00
2022,06,12,04,02,0.00
2022,06,12,04,03,0.00
2022,06,12,04,04,0.00
2022,06,12,04,05,0.00
2022,06,12,04,06,0.00
2022,06,12,04,07,0.00
2022,06,12,04,08,0.00
2022,06,12,04,09,0.00
2022,06,12,04,10,0.00
2022,06,12,04,11,0.00
2022,06,12,04,12,0.00
2022,06,12,04,13,0.00
2022,06,12,04,14,0.00
2022,06,12,04,15,0.00
2022,06,12,04,16,0.00
2022,06,12,04,17,0.00
2022,06,12,04,18,0.00
2022,06,12,04,19,0.00
2022,06,12,04,20,0.00
2022,06,12,04,21,0.00
2022,06,12,04,22,0.00
2022,06,12,04,23,0.00
2022,06,12,04,24,0.00
2022,06,12,04,25,0.00
2022,06,12,04,26,0.00
2022,06,12,04,27,0.00
2022,06,12,04,28,0.00
2022,06,12,04,29,0.00
2022,06,12,04,30,0.00
2022,06,12,04,31,0.00
2022,06,12,04,32,0.00
2022,06,12,04,33,0.00
2022,06,12,04,34,0.00
2022,06,12,04,35,0.00
2022,06,12,04,36,0.00
2022,06,12,04,37,0.00
2022,06,12,04,38,0.00
2022,06,12,04,39,0.00
2022,06,12,04,40,0.00
2022,06,12,04,41,0.00
2022,06,12,04,42,0.00
2022,06,12,04,43,0.00
2022,06,12,04,44,0.00
2022,06,12,04,45,0.00
2022,06,12,04,46,0.00
2022,06,12,04,47,0.00
2022,06,12,04,48,0.00
2022,06,12,04,49,0.00
2022,06,12,04,50,0.00
2022,06,12,04,51,0.00
2022,06,12,04,52,0.00
2022,06,12,04,53,0.00
2022,06,12,04,54,0.00
2022,06,12,04,55,0.00
2022,06,12,04,56,0.00
2022,06,12,04,57,0.00
2022,06,12,04,58,0.00
2022,06,12,04,59,0.00
2022,06,12,05,00,0.00
2022,06,12,05,01,0.00
2022,06,12,05,02,0.00
2022,06,12,05,03,0.00
2022,06,12,05,04,0.00
2022,06,12,05,05,0.00
2022,06,12,05,06,0.00
2022,06,12,05,07,0.00
2022,06,12,05,08,0.00
2022,06,12,05,09,0.00
2022,06,12,05,10,0.00
2022,06,12,05,11,0.00
2022,06,12,05,12,0.00
2022,06,12,05,13,0.00
2022,06,12,05,14,0.00
2022,06,12,05,15,0.00
2022,06,12,05,16,0.00
2022,06,12,05,17,0.00
2022,06,12,05,18,0.00
2022,06,12,05,19,0.00
2022,06,12,05,20,0.00
2022,06,12,05,21,0.00
2022,06,12,05,22,0.00
2022,06,12,05,23,0.00
2022,06,12,05,24,0.00
2022,06,12,05,25,0.00
2022,06,12,05,26,0.00
2022,06,12,05,27,0.00
2022,06,12,05,28,0.00
2022,06,12,05,29,0.00
2022,06,12,05,30,0.00
2022,06,12,05,31,0.00
2022,06,12,05,32,0.00
2022,06,12,05,33,0.00
2022,06,12,05,34,0.00
2022,06,12,05,35,0.00
2022,06,12,05,36,3.30
2022,06,12,05,37,5.00
2022,06,12,05,38,5.00
2022,06,12,05,39,5.00
2022,06,12,05,40,5.00
2022,06,12,05,41,5.00
2022,06,12,05,42,5.00
2022,06,12,05,43,6.30
2022,06,12,05,44,7.00
2022,06,12,05,45,7.00
2022,06,12,05,46,7.00
2022,06,12,05,47,7.50
2022,06,12,05,48,9.00
2022,06,12,05,49,9.00
2022,06,12,05,50,9.00
2022,06,12,05,51,10.50
2022,06,12,05,52,11.00
2022,06,12,05,53,11.00
2022,06,12,05,54,11.00
2022,06,12,05,55,11.00
2022,06,12,05,56,11.50
2022,06,12,05,57,12.00
2022,06,12,05,58,12.00
2022,06,12,05,59,13.80
2022,06,12,06,00,14.00
2022,06,12,06,01,14.00
2022,06,12,06,02,14.70
2022,06,12,06,03,16.00
2022,06,12,06,04,16.00
2022,06,12,06,05,16.00
2022,06,12,06,06,17.80
2022,06,12,06,07,18.10
2022,06,12,06,08,19.50
2022,06,12,06,09,21.80
2022,06,12,06,10,24.00
2022,06,12,06,11,25.60
2022,06,12,06,12,27.50
2022,06,12,06,13,28.00
2022,06,12,06,14,30.30
2022,06,12,06,15,32.30
2022,06,12,06,16,33.70
2022,06,12,06,17,35.00
2022,06,12,06,18,37.70
2022,06,12,06,19,39.80
2022,06,12,06,20,40.10
2022,06,12,06,21,42.20
2022,06,12,06,22,44.90
2022,06,12,06,23,47.80
2022,06,12,06,24,50.00
2022,06,12,06,25,51.00
2022,06,12,06,26,49.40
2022,06,12,06,27,47.20
2022,06,12,06,28,45.70
2022,06,12,06,29,44.00
2022,06,12,06,30,43.20
2022,06,12,06,31,41.00
2022,06,12,06,32,38.10
2022,06,12,06,33,37.00
2022,06,12,06,34,35.20
2022,06,12,06,35,32.90
2022,06,12,06,36,31.50
2022,06,12,06,37,30.00
2022,06,12,06,38,29.00
2022,06,12,06,39,29.30
2022,06,12,06,40,30.00
2022,06,12,06,41,31.80
2022,06,12,06,42,33.30
2022,06,12,06,43,35.50
2022,06,12,06,44,37.00
2022,06,12,06,45,38.00
2022,06,12,06,46,39.60
2022,06,12,06,47,41.60
2022,06,12,06,48,42.00
2022,06,12,06,49,41.70
2022,06,12,06,50,39.10
2022,06,12,06,51,35.40
2022,06,12,06,52,32.50
2022,06,12,06,53,30.70
2022,06,12,06,54,30.00
2022,06,12,06,55,30.00
2022,06,12,06,56,30.30
2022,06,12,06,57,32.00
2022,06,12,06,58,32.00
2022,06,12,06,59,31.00
2022,06,12,07,00,30.00
2022,06,12,07,01,30.00
2022,06,12,07,02,28.20
2022,06,12,07,03,28.00
2022,06,12,07,04,27.50
2022,06,12,07,05,26.00
2022,06,12,07,06,26.00
2022,06,12,07,07,25.40
2022,06,12,07,08,25.00
2022,06,12,07,09,25.00
2022,06,12,07,10,25.10
2022,06,12,07,11,26.00
2022,06,12,07,12,26.80
2022,06,12,07,13,28.00
2022,06,12,07,14,26.70
2022,06,12,07,15,26.00
2022,06,12,07,16,25.10
2022,06,12,07,17,25.10
2022,06,12,07,18,26.50
2022,06,12,07,19,28.00
2022,06,12,07,20,29.00
2022,06,12,07,21,28.70
2022,06,12,07,22,28.00
2022,06,12,07,23,26.20
2022,06,12,07,24,26.00
2022,06,12,07,25,26.00
2022,06,12,07,26,26.00
2022,06,12,07,27,26.00
2022,06,12,07,28,27.30
2022,06,12,07,29,28.00
2022,06,12,07,30,29.80
2022,06,12,07,31,32.10
2022,06,12,07,32,33.00
2022,06,12,07,33,33.80
2022,06,12,07,34,35.00
2022,06,12,07,35,35.00
2022,06,12,07,36,35.00
2022,06,12,07,37,34.90
2022,06,12,07,38,33.00
2022,06,12,07,39,33.00
2022,06,12,07,40,33.00
2022,06,12,07,41,33.00
2022,06,12,07,42,33.00
2022,06,12,07,43,33.00
2022,06,12,07,44,33.00
2022,06,12,07,45,33.00
2022,06,12,07,46,33.50
2022,06,12,07,47,35.80
2022,06,12,07,48,38.50
2022,06,12,07,49,42.50
2022,06,12,07,50,46.30
2022,06,12,07,51,52.60
2022,06,12,07,52,61.00
2022,06,12,07,53,68.80
2022,06,12,07,54,76.80
2022,06,12,07,55,83.60
2022,06,12,07,56,88.60
2022,06,12,07,57,90.80
2022,06,12,07,58,91.00
2022,06,12,07,59,90.90
2022,06,12,08,00,90.00
2022,06,12,08,01,89.20
2022,06,12,08,02,88.00
2022,06,12,08,03,88.00
2022,06,12,08,04,88.00
2022,06,12,08,05,88.00
2022,06,12,08,06,88.30
2022,06,12,08,07,90.30
2022,06,12,08,08,91.00
2022,06,12,08,09,92.00
2022,06,12,08,10,91.70
2022,06,12,08,11,90.20
2022,06,12,08,12,88.30
2022,06,12,08,13,91.60
2022,06,12,08,14,96.40
2022,06,12,08,15,101.60
2022,06,12,08,16,105.60
2022,06,12,08,17,108.30
2022,06,12,08,18,109.00
2022,06,12,08,19,111.00
2022,06,12,08,20,114.90
2022,06,12,08,21,121.30
2022,06,12,08,22,127.80
2022,06,12,08,23,135.60
2022,06,12,08,24,144.70
2022,06,12,08,25,151.80
2022,06,12,08,26,149.40
2022,06,12,08,27,137.30
2022,06,12,08,28,124.10
2022,06,12,08,29,112.70
2022,06,12,08,30,104.50
2022,06,12,08,31,100.70
2022,06,12,08,32,98.50
2022,06,12,08,33,99.90
2022,06,12,08,34,102.30
2022,06,12,08,35,104.00
2022,06,12,08,36,104.40
2022,06,12,08,37,106.00
2022,06,12,08,38,107.00
2022,06,12,08,39,108.60
2022,06,12,08,40,109.00
2022,06,12,08,41,111.30
2022,06,12,08,42,112.50
2022,06,12,08,43,110.30
2022,06,12,08,44,106.40
2022,06,12,08,45,99.50
2022,06,12,08,46,92.30
2022,06,12,08,47,86.50
2022,06,12,08,48,83.90
2022,06,12,08,49,83.00
2022,06,12,08,50,83.00
2022,06,12,08,51,83.00
2022,06,12,08,52,83.60
2022,06,12,08,53,83.20
2022,06,12,08,54,82.90
2022,06,12,08,55,80.40
2022,06,12,08,56,76.70
2022,06,12,08,57,75.30
2022,06,12,08,58,73.00
2022,06,12,08,59,70.70
2022,06,12,09,00,70.00
2022,06,12,09,01,69.10
2022,06,12,09,02,69.10
2022,06,12,09,03,70.00
2022,06,12,09,04,70.00
2022,06,12,09,05,69.50
2022,06,12,09,06,69.00
2022,06,12,09,07,67.40
2022,06,12,09,08,65.20
2022,06,12,09,09,63.00
2022,06,12,09,10,63.00
2022,06,12,09,11,63.00
2022,06,12,09,12,63.00
2022,06,12,09,13,62.40
2022,06,12,09,14,62.00
2022,06,12,09,15,62.00
2022,06,12,09,16,62.00
2022,06,12,09,17,62.30
2022,06,12,09,18,63.70
2022,06,12,09,19,66.00
2022,06,12,09,20,69.00
2022,06,12,09,21,73.10
2022,06,12,09,22,76.70
2022,06,12,09,23,79.60
2022,06,12,09,24,83.30
2022,06,12,09,25,84.80
2022,06,12,09,26,87.00
2022,06,12,09,27,88.00
2022,06,12,09,28,88.00
2022,06,12,09,29,87.90
2022,06,12,09,30,86.30
2022,06,12,09,31,88.00
2022,06,12,09,32,88.80
2022,06,12,09,33,91.60
2022,06,12,09,34,94.30
2022,06,12,09,35,97.20
2022,06,12,09,36,99.80
2022,06,12,09,37,100.30
2022,06,12,09,38,102.00
2022,06,12,09,39,102.00
2022,06,12,09,40,101.00
2022,06,12,09,41,100.00
2022,06,12,09,42,101.50
2022,06,12,09,43,102.00
2022,06,12,09,44,102.00
2022,06,12,09,45,102.00
2022,06,12,09,46,102.00
2022,06,12,09,47,102.00
2022,06,12,09,48,102.00
2022,06,12,09,49,102.00
2022,06,12,09,50,103.80
2022,06,12,09,51,105.00
2022,06,12,09,52,105.00
2022,06,12,09,53,104.60
2022,06,12,09,54,102.90
2022,06,12,09,55,100.70
2022,06,12,09,56,98.50
2022,06,12,09,57,98.00
2022,06,12,09,58,98.30
2022,06,12,09,59,100.50
2022,06,12,10,00,102.80
2022,06,12,10,01,105.60
2022,06,12,10,02,108.30
2022,06,12,10,03,110.50
2022,06,12,10,04,112.80
2022,06,12,10,05,114.30
2022,06,12,10,06,116.50
2022,06,12,10,07,118.00
2022,06,12,10,08,120.60
2022,06,12,10,09,125.60
2022,06,12,10,10,129.30
2022,06,12,10,11,133.80
2022,06,12,10,12,140.00
2022,06,12,10,13,148.00
2022,06,12,10,14,156.70
2022,06,12,10,15,167.20
2022,06,12,10,16,178.90
2022,06,12,10,17,192.00
2022,06,12,10,18,204.80
2022,06,12,10,19,215.00
2022,06,12,10,20,224.80
2022,06,12,10,21,233.30
2022,06,12,10,22,242.80
2022,06,12,10,23,253.30
2022,06,12,10,24,266.30
2022,06,12,10,25,285.90
2022,06,12,10,26,316.50
2022,06,12,10,27,370.00
2022,06,12,10,28,437.20
2022,06,12,10,29,497.00
2022,06,12,10,30,540.50
2022,06,12,10,31,602.10
2022,06,12,10,32,606.60
2022,06,12,10,33,605.00
2022,06,12,10,34,584.50
2022,06,12,10,35,518.10
2022,06,12,10,36,483.20
2022,06,12,10,37,470.20
2022,06,12,10,38,445.80
2022,06,12,10,39,503.60
2022,06,12,10,40,448.80
2022,06,12,10,41,447.50
2022,06,12,10,42,435.20
2022,06,12,10,43,437.00
2022,06,12,10,44,429.00
2022,06,12,10,45,451.40
2022,06,12,10,46,434.80
2022,06,12,10,47,443.30
2022,06,12,10,48,475.10
2022,06,12,10,49,521.80
2022,06,12,10,50,516.00
2022,06,12,10,51,530.30
2022,06,12,10,52,536.00
2022,06,12,10,53,621.10
2022,06,12,10,54,586.50
2022,06,12,10,55,553.00
2022,06,12,10,56,571.60
2022,06,12,10,57,606.00
2022,06,12,10,58,606.00
2022,06,12,10,59,606.00
2022,06,12,11,00,753.60
2022,06,12,11,01,731.00
2022,06,12,11,02,768.10
2022,06,12,11,03,893.30
2022,06,12,11,04,926.00
2022,06,12,11,05,926.00
2022,06,12,11,06,802.20
2022,06,12,11,07,712.30
2022,06,12,11,08,742.90
2022,06,12,11,09,778.30
2022,06,12,11,10,736.10
2022,06,12,11,11,689.80
2022,06,12,11,12,679.40
2022,06,12,11,13,700.30
2022,06,12,11,14,708.00
2022,06,12,11,15,740.70
2022,06,12,11,16,737.90
2022,06,12,11,17,754.40
2022,06,12,11,18,758.00
2022,06,12,11,19,654.70
2022,06,12,11,20,597.90
2022,06,12,11,21,597.30
2022,06,12,11,22,569.80
2022,06,12,11,23,529.70
2022,06,12,11,24,507.70
2022,06,12,11,25,525.50
2022,06,12,11,26,581.30
2022,06,12,11,27,603.00
2022,06,12,11,28,738.20
2022,06,12,11,29,765.70
2022,06,12,11,30,769.50
2022,06,12,11,31,759.80
2022,06,12,11,32,766.20
2022,06,12,11,33,784.00
2022,06,12,11,34,784.00
2022,06,12,11,35,959.10
2022,06,12,11,36,981.00
2022,06,12,11,37,1001.00
2022,06,12,11,38,1093.90
2022,06,12,11,39,1155.00
2022,06,12,11,40,857.00
2022,06,12,11,41,693.20
2022,06,12,11,42,684.60
2022,06,12,11,43,715.00
2022,06,12,11,44,773.10
2022,06,12,11,45,939.00
2022,06,12,11,46,939.00
2022,06,12,11,47,902.50
2022,06,12,11,48,881.00
2022,06,12,11,49,1057.00
2022,06,12,11,50,1055.10
2022,06,12,11,51,912.00
2022,06,12,11,52,912.00
2022,06,12,11,53,734.70
2022,06,12,11,54,551.10
2022,06,12,11,55,526.50
2022,06,12,11,56,513.10
2022,06,12,11,57,507.40
2022,06,12,11,58,503.20
2022,06,12,11,59,507.00
2022,06,12,12,00,513.60
2022,06,12,12,01,519.40
2022,06,12,12,02,534.00
2022,06,12,12,03,566.40
2022,06,12,12,04,636.80
2022,06,12,12,05,696.00
2022,06,12,12,06,751.20
2022,06,12,12,07,726.60
2022,06,12,12,08,684.20
2022,06,12,12,09,666.00
2022,06,12,12,10,742.40
2022,06,12,12,11,727.70
2022,06,12,12,12,583.80
2022,06,12,12,13,609.70
2022,06,12,12,14,673.00
2022,06,12,12,15,701.00
2022,06,12,12,16,938.80
2022,06,12,12,17,1002.00
2022,06,12,12,18,983.00
2022,06,12,12,19,983.00
2022,06,12,12,20,983.00
2022,06,12,12,21,983.00
2022,06,12,12,22,939.90
2022,06,12,12,23,928.40
2022,06,12,12,24,913.20
2022,06,12,12,25,889.80
2022,06,12,12,26,768.00
2022,06,12,12,27,818.30
2022,06,12,12,28,885.10
2022,06,12,12,29,817.80
2022,06,12,12,30,755.70
2022,06,12,12,31,779.90
2022,06,12,12,32,793.00
2022,06,12,12,33,770.80
2022,06,12,12,34,783.00
2022,06,12,12,35,800.50
2022,06,12,12,36,864.60
2022,06,12,12,37,881.20
2022,06,12,12,38,966.50
2022,06,12,12,39,928.20
2022,06,12,12,40,882.10
2022,06,12,12,41,892.30
2022,06,12,12,42,932.00
2022,06,12,12,43,843.90
2022,06,12,12,44,816.80
2022,06,12,12,45,797.60
2022,06,12,12,46,884.90
2022,06,12,12,47,906.50
2022,06,12,12,48,929.40
2022,06,12,12,49,981.50
2022,06,12,12,50,1010.70
2022,06,12,12,51,996.70
2022,06,12,12,52,923.30
2022,06,12,12,53,846.30
2022,06,12,12,54,819.00
2022,06,12,12,55,789.70
2022,06,12,12,56,742.30
2022,06,12,12,57,734.80
2022,06,12,12,58,798.30
2022,06,12,12,59,787.50
2022,06,12,13,00,777.00
2022,06,12,13,01,810.70
2022,06,12,13,02,782.40
2022,06,12,13,03,757.50
2022,06,12,13,04,732.00
2022,06,12,13,05,698.00
2022,06,12,13,06,697.20
2022,06,12,13,07,737.70
2022,06,12,13,08,773.70
2022,06,12,13,09,824.50
2022,06,12,13,10,781.30
2022,06,12,13,11,749.00
2022,06,12,13,12,749.00
2022,06,12,13,13,749.80
2022,06,12,13,14,756.70
2022,06,12,13,15,677.40
2022,06,12,13,16,670.00
2022,06,12,13,17,832.30
2022,06,12,13,18,978.30
2022,06,12,13,19,979.90
2022,06,12,13,20,979.20
2022,06,12,13,21,930.00
2022,06,12,13,22,930.00
2022,06,12,13,23,930.00
2022,06,12,13,24,930.00
2022,06,12,13,25,700.80
2022,06,12,13,26,615.60
2022,06,12,13,27,591.20
2022,06,12,13,28,638.00
2022,06,12,13,29,638.00
2022,06,12,13,30,742.50
2022,06,12,13,31,886.40
2022,06,12,13,32,885.70
2022,06,12,13,33,900.20
2022,06,12,13,34,878.00
2022,06,12,13,35,892.70
2022,06,12,13,36,841.90
2022,06,12,13,37,835.30
2022,06,12,13,38,789.50
2022,06,12,13,39,792.20
2022,06,12,13,40,836.60
2022,06,12,13,41,839.60
2022,06,12,13,42,753.40
2022,06,12,13,43,696.80
2022,06,12,13,44,619.70
2022,06,12,13,45,573.50
2022,06,12,13,46,576.10
2022,06,12,13,47,570.00
2022,06,12,13,48,610.00
2022,06,12,13,49,694.00
2022,06,12,13,50,703.60
2022,06,12,13,51,683.00
2022,06,12,13,52,658.30
2022,06,12,13,53,737.90
2022,06,12,13,54,713.50
2022,06,12,13,55,612.60
2022,06,12,13,56,647.90
2022,06,12,13,57,642.00
2022,06,12,13,58,635.00
2022,06,12,13,59,646.60
2022,06,12,14,00,654.20
2022,06,12,14,01,618.10
2022,06,12,14,02,637.00
2022,06,12,14,03,674.30
2022,06,12,14,04,670.00
2022,06,12,14,05,678.90
2022,06,12,14,06,696.00
2022,06,12,14,07,713.10
2022,06,12,14,08,713.00
2022,06,12,14,09,726.90
2022,06,12,14,10,708.00
2022,06,12,14,11,708.00
2022,06,12,14,12,706.80
2022,06,12,14,13,702.90
2022,06,12,14,14,703.60
2022,06,12,14,15,712.00
2022,06,12,14,16,727.30
2022,06,12,14,17,705.70
2022,06,12,14,18,670.30
2022,06,12,14,19,679.80
2022,06,12,14,20,695.90
2022,06,12,14,21,683.70
2022,06,12,14,22,685.80
2022,06,12,14,23,675.00
2022,06,12,14,24,649.90
2022,06,12,14,25,680.80
2022,06,12,14,26,670.80
2022,06,12,14,27,657.40
2022,06,12,14,28,632.80
2022,06,12,14,29,638.00
2022,06,12,14,30,486.90
2022,06,12,14,31,475.10
2022,06,12,14,32,477.80
2022,06,12,14,33,481.00
2022,06,12,14,34,522.60
2022,06,12,14,35,564.00
2022,06,12,14,36,564.00
2022,06,12,14,37,792.40
2022,06,12,14,38,821.00
2022,06,12,14,39,704.90
2022,06,12,14,40,383.20
2022,06,12,14,41,428.00
2022,06,12,14,42,455.00
2022,06,12,14,43,669.10
2022,06,12,14,44,793.00
2022,06,12,14,45,813.40
2022,06,12,14,46,755.70
2022,06,12,14,47,700.90
2022,06,12,14,48,708.00
2022,06,12,14,49,692.80
2022,06,12,14,50,611.00
2022,06,12,14,51,630.00
2022,06,12,14,52,600.30
2022,06,12,14,53,583.20
2022,06,12,14,54,586.20
2022,06,12,14,55,608.30
2022,06,12,14,56,661.10
2022,06,12,14,57,681.80
2022,06,12,14,58,598.40
2022,06,12,14,59,614.10
2022,06,12,15,00,529.10
2022,06,12,15,01,511.30
2022,06,12,15,02,535.60
2022,06,12,15,03,573.90
2022,06,12,15,04,583.10
2022,06,12,15,05,611.60
2022,06,12,15,06,627.70
2022,06,12,15,07,741.00
2022,06,12,15,08,748.50
2022,06,12,15,09,738.50
2022,06,12,15,10,777.00
2022,06,12,15,11,633.10
2022,06,12,15,12,601.80
2022,06,12,15,13,637.60
2022,06,12,15,14,686.40
2022,06,12,15,15,680.90
2022,06,12,15,16,684.00
2022,06,12,15,17,751.40
2022,06,12,15,18,717.10
2022,06,12,15,19,683.60
2022,06,12,15,20,625.80
2022,06,12,15,21,595.20
2022,06,12,15,22,561.10
2022,06,12,15,23,572.50
2022,06,12,15,24,577.00
2022,06,12,15,25,559.90
2022,06,12,15,26,562.10
2022,06,12,15,27,563.00
2022,06,12,15,28,559.60
2022,06,12,15,29,542.50
2022,06,12,15,30,533.60
2022,06,12,15,31,531.60
2022,06,12,15,32,535.80
2022,06,12,15,33,515.80
2022,06,12,15,34,538.00
2022,06,12,15,35,538.00
2022,06,12,15,36,564.70
2022,06,12,15,37,590.00
2022,06,12,15,38,576.70
2022,06,12,15,39,506.10
2022,06,12,15,40,500.20
2022,06,12,15,41,529.90
2022,06,12,15,42,546.60
2022,06,12,15,43,549.90
2022,06,12,15,44,546.20
2022,06,12,15,45,526.50
2022,06,12,15,46,556.60
2022,06,12,15,47,550.90
2022,06,12,15,48,548.60
2022,06,12,15,49,621.00
2022,06,12,15,50,621.00
2022,06,12,15,51,627.20
2022,06,12,15,52,610.50
2022,06,12,15,53,648.60
2022,06,12,15,54,663.00
2022,06,12,15,55,663.00
2022,06,12,15,56,663.00
2022,06,12,15,57,663.00
2022,06,12,15,58,613.00
2022,06,12,15,59,547.70
2022,06,12,16,00,506.60
2022,06,12,16,01,473.20
2022,06,12,16,02,452.10
2022,06,12,16,03,439.70
2022,06,12,16,04,434.40
2022,06,12,16,05,426.80
2022,06,12,16,06,413.20
2022,06,12,16,07,409.50
2022,06,12,16,08,425.60
2022,06,12,16,09,440.60
2022,06,12,16,10,464.50
2022,06,12,16,11,494.20
2022,06,12,16,12,485.30
2022,06,12,16,13,491.40
2022,06,12,16,14,487.70
2022,06,12,16,15,518.10
2022,06,12,16,16,532.40
2022,06,12,16,17,493.60
2022,06,12,16,18,485.80
2022,06,12,16,19,499.00
2022,06,12,16,20,511.90
2022,06,12,16,21,553.20
2022,06,12,16,22,571.90
2022,06,12,16,23,668.00
2022,06,12,16,24,621.90
2022,06,12,16,25,482.20
2022,06,12,16,26,499.80
2022,06,12,16,27,505.90
2022,06,12,16,28,490.00
2022,06,12,16,29,490.00
2022,06,12,16,30,486.40
2022,06,12,16,31,426.10
2022,06,12,16,32,400.10
2022,06,12,16,33,364.10
2022,06,12,16,34,355.00
2022,06,12,16,35,355.00
2022,06,12,16,36,362.10
2022,06,12,16,37,555.00
2022,06,12,16,38,555.00
2022,06,12,16,39,529.50
2022,06,12,16,40,483.80
2022,06,12,16,41,439.60
2022,06,12,16,42,450.00
2022,06,12,16,43,416.20
2022,06,12,16,44,358.90
2022,06,12,16,45,381.00
2022,06,12,16,46,410.10
2022,06,12,16,47,475.20
2022,06,12,16,48,494.00
2022,06,12,16,49,494.00
2022,06,12,16,50,613.10
2022,06,12,16,51,600.40
2022,06,12,16,52,387.40
2022,06,12,16,53,395.40
2022,06,12,16,54,349.90
2022,06,12,16,55,386.30
2022,06,12,16,56,422.00
2022,06,12,16,57,484.20
2022,06,12,16,58,546.90
2022,06,12,16,59,536.40
2022,06,12,17,00,514.20
2022,06,12,17,01,496.50
2022,06,12,17,02,517.10
2022,06,12,17,03,525.20
2022,06,12,17,04,520.40
2022,06,12,17,05,518.30
2022,06,12,17,06,510.40
2022,06,12,17,07,496.70
2022,06,12,17,08,490.60
2022,06,12,17,09,472.80
2022,06,12,17,10,501.40
2022,06,12,17,11,522.80
2022,06,12,17,12,526.70
2022,06,12,17,13,499.70